Orbital Elements at Epoch 2459000.5 (2020-May-31.0) TDB
Reference: JPL 14 (heliocentric ecliptic J2000)
Element | Value | Uncertainty (1-sigma) | Units |
e | .2732558227884339 | 5.9005e-08 | |
a | 2.687747274967461 | 1.9922e-08 | au |
q | 1.953304681898857 | 1.5214e-07 | au |
i | 12.57794138680616 | 7.3879e-06 | deg |
node | 199.9622496284799 | 2.0367e-05 | deg |
peri | 129.8692433723952 | 2.4301e-05 | deg |
M | 130.7092089825799 | 1.7272e-05 | deg |
tp | 2458416.134244507983 (2018-Oct-24.63424451) | 7.2276e-05 | TDB |
period | 1609.46327817777 4.41 | 1.7894e-05 4.899e-08 | d yr |
n | .2236770511518543 | 2.4868e-09 | deg/d |
Q | 3.422189868036066 | 2.5365e-08 | au |
|
| | Orbit Determination Parameters
Additional Information
|